#timestamp,LO_Frequency,Hit,StdDev 
1563793215.2,286047001.3,Y
1563793235.1,286047001.5,P
1563793236.0,286047001.5,N
1563793255.8,286047002.5,P
1563793275.7,286047001.8,N
1563793295.5,286046999.9,N
1563793315.3,286046998.1,N
1563793335.2,286047000.9,N
1563793355.0,286046998.2,N
1563793355.9,286046998.2,N
1563793375.8,286046998.6,N
1563793395.6,286047000.1,N
1563793415.5,286047002.1,N
1563793435.3,286047003.2,N
1563793455.1,286047007.5,Y
1563793475.9,286047003.9,P
1563793495.7,286047001.5,N
1563793515.6,286047004.2,N
1563793535.4,286047004.2,N
1563793555.2,286047001.3,N
1563793575.1,286047000.3,N
1563793576.0,286047000.3,N
1563793595.8,286046998.2,N
1563793615.6,286046998.5,N
1563793635.5,286046998.6,N
1563793655.3,286047001.0,N
1563793675.2,286046999.1,N
1563793695.9,286046997.8,N
1563793715.7,286046997.6,N
1563793735.6,286046997.3,N
1563793755.4,286046997.7,N
1563793775.3,286046996.6,N
1563793795.1,286046999.2,N
1563793796.0,286046999.2,N
1563793815.8,286046999.4,N
1563793835.7,286046998.8,N
1563793855.5,286047000.8,N
1563793875.3,286047000.5,N
1563793895.2,286046998.3,N
1563793915.0,286046998.9,N
1563793915.9,286046998.9,N
1563793935.8,286047002.7,N
1563793955.6,286047002.6,N
1563793975.4,286047004.4,N
1563793995.3,286047003.6,N
1563794015.1,286047002.9,N
1563794035.9,286047003.4,N
1563794055.7,286047002.9,N
1563794105.6,286047005.9,E
1563794115.5,286047001.3,N
1563794135.3,286046998.7,P
1563794155.2,286046999.6,N
1563794175.9,286046997.7,N
1563794195.7,286046995.4,Y
1563794215.6,286046996.8,P
1563794235.4,286046997.8,N
1563794255.3,286046997.9,N
1563794275.1,286046997.7,N
1563794306.0,286046997.4,E
1563794315.0,286046999.6,N
1563794315.9,286046999.6,P
1563794335.8,286046998.5,P
1563794355.6,286047001.1,N
1563794375.5,286047000.9,N
1563794395.3,286047000.6,N
1563794415.1,286047000.9,N
1563794435.9,286047000.4,N
1563794455.7,286047001.0,N
1563794475.5,286047001.0,N
1563794495.4,286046998.2,N
1563794515.2,286046998.5,N
1563794535.1,286047001.2,N
1563794536.0,286047001.2,N
1563794555.8,286046998.5,N
1563794575.6,286047001.1,N
1563794595.5,286046998.2,N
1563794615.3,286046999.0,N
1563794635.2,286046998.2,N
1563794655.9,286047001.2,N
1563794675.7,286046998.3,N
1563794695.6,286046998.9,N
1563794715.4,286046996.8,N
1563794735.2,286046997.3,N
1563794755.1,286046995.3,Y
1563794756.0,286046995.3,P
1563794775.8,286046997.6,N
1563794795.7,286046997.8,N
1563794815.5,286046997.3,N
1563794835.3,286046996.7,N
1563794855.2,286046997.6,N
1563794875.0,286046995.5,Y
1563794875.9,286046995.5,P
1563794895.8,286046998.2,N
1563794915.6,286046998.3,N
1563794935.4,286046999.3,N
1563794955.3,286046998.5,N
1563794975.1,286046998.9,N
1563794995.9,286046998.7,N
1563795015.7,286046999.5,N
1563795035.5,286046997.0,N
1563795055.4,286046999.5,N
1563795075.2,286046997.3,N
1563795095.0,286046997.5,N
1563795095.9,286046997.5,N
1563795115.8,286046997.1,N
1563795135.6,286046997.0,N
1563795155.5,286046997.0,N
1563795175.3,286046996.9,N
1563795195.1,286046997.2,N
1563795215.9,286046996.9,Y
1563795235.7,286047000.7,P
1563795255.6,286047001.0,N
1563795275.4,286047001.0,N
1563795295.2,286046998.7,N
1563795315.1,286046997.2,N
1563795316.0,286046997.2,N
1563795335.8,286046998.3,N
1563795355.6,286046998.9,N
1563795375.5,286046998.9,N
1563795395.3,286046998.8,N
1563795415.2,286046998.3,N
1563795435.9,286046998.9,N
1563795455.7,286046998.7,N
1563795475.6,286047000.5,N
1563795495.4,286047001.5,N
1563795515.3,286047001.7,N
1563795535.1,286047002.5,N
1563795536.0,286047002.5,N
1563795555.8,286047002.1,N
1563795575.7,286047001.8,N
1563795595.5,286047002.1,N
1563795615.3,286046999.7,N
1563795635.2,286047000.3,N
1563795655.0,286047001.2,N
1563795655.9,286047001.2,N
1563795675.8,286046998.3,N
1563795695.6,286046996.5,N
1563795715.4,286046998.1,N
1563795735.3,286047001.0,N
1563795755.1,286046999.7,N
1563795775.8,286047000.4,N
1563795795.7,286047002.4,N
1563795815.5,286046999.8,N
1563795835.4,286047000.1,N
1563795855.2,286047002.1,N
1563795875.0,286047002.5,N
1563795875.9,286047002.5,N
1563795895.8,286047002.3,N
1563795915.6,286047002.7,N
1563795935.5,286047004.4,N
1563795955.3,286047001.9,N
1563795975.1,286047002.6,N
1563795995.9,286047002.6,N
1563796015.7,286047002.8,N
1563796035.5,286047000.5,N
1563796055.4,286047002.8,N
1563796075.2,286047002.7,N
1563796095.1,286046999.7,N
1563796096.0,286046999.7,N
1563796115.8,286047002.6,N
1563796135.6,286047000.6,N
1563796155.5,286047001.1,N
1563796175.3,286047002.5,N
1563796195.2,286047000.4,N
1563796215.9,286047000.3,N
1563796235.7,286046999.7,N
1563796255.6,286046998.1,N
1563796275.4,286046998.2,N
1563796295.2,286047001.1,N
1563796315.1,286047002.8,N
1563796316.0,286047002.8,N
1563796335.8,286047002.7,N
1563796355.7,286047001.6,N
1563796375.5,286047002.0,N
1563796395.3,286047000.1,N
1563796415.2,286047000.3,N
1563796435.0,286046999.9,N
1563796435.9,286046999.9,N
1563796455.8,286047000.1,N
1563796475.6,286047002.3,N
1563796495.4,286047002.5,N
1563796515.3,286047002.2,N
1563796535.1,286047001.6,N
1563796555.8,286047002.7,N
1563796575.7,286047000.5,N
1563796595.5,286047002.2,N
1563796615.4,286047002.3,N
1563796635.2,286047004.4,Y
1563796655.0,286047000.0,P
1563796655.9,286047000.0,N
1563796675.8,286046998.1,P
1563796695.6,286046998.2,N
1563796715.5,286047000.3,N
1563796735.3,286047000.5,N
1563796755.1,286047000.3,N
1563796775.9,286047000.2,N
1563796795.7,286047000.7,N
